Location: Madrid
(40.4167°N, 3.7036°W)
Time: 12:30:49
(UTC+00:00)

ISS - Pass Details

Date: 06 May 2025
Orbit: 416 x 419 km, 51.6° (Epoch: 14 May)

Event Time Altitude Azimuth Distance (km) Brightness Sun altitude
Exits shadow 02:35:01 - 319° (NW) 1,941 -0.3 -24.0°
Reaches altitude 10° 02:36:36 10° 336° (NNW) 1,496 -0.6 -23.8°
Maximum altitude 02:38:34 15° 12° (NNE) 1,247 -0.6 -23.5°
Drops below altitude 10° 02:40:32 10° 48° (NE) 1,495 0.1 -23.3°
Sets 02:43:21 0° 74° (ENE) 2,357 0.9 -23.0°
